MSC Lea — 9HA2639 — position and weather

sailwx.info

Track history (hours):
 
Tides and Currents Weather Stations Pressure Air Temp Water Temp Dewpoint Dewpoint Depression Visibility Wind Speed Wind Dir Waves Ship Positions

MSC Lea

Last reported at 2014-Oct-23 16:16 UTC. Time now 2014-Oct-23 17:12 UTC.
Position N 44°30' E 037°34'.

Length 217 m; draft 8.2 m.

Type: Ship (hazmat cat A). MMSI: 215101000.

Date/timePositionNaut miles runAvg speedWind from/ knotsBaromVisibWave heightAir tempDewpointWater temp
2014-Oct-23 16:16N 44°30' E 037°34'1014.4
2014-Oct-23 15:34N 44°36' E 037°46'8 8.1
2014-Oct-23 14:34N 44°44' E 037°47'0 0.4
2014-Oct-23 13:32N 44°44' E 037°47'0 0.0
2014-Oct-23 12:32N 44°44' E 037°47'0 0.0
2014-Oct-23 11:33N 44°44' E 037°47'0 0.0
2014-Oct-23 10:25N 44°44' E 037°47'0 0.0
2014-Oct-23 09:31N 44°44' E 037°47'0 0.0
2014-Oct-23 08:32N 44°44' E 037°47'0 0.0
2014-Oct-23 07:33N 44°44' E 037°47'0 0.0
2014-Oct-23 06:33N 44°44' E 037°47'0 0.0
2014-Oct-23 05:31N 44°44' E 037°47'0 0.0
2014-Oct-23 04:32N 44°44' E 037°47'0 0.0
2014-Oct-23 03:32N 44°44' E 037°47'0 0.0
2014-Oct-23 02:33N 44°44' E 037°47'0 0.0
2014-Oct-23 01:22N 44°44' E 037°47'0 0.0
2014-Oct-23 00:32N 44°44' E 037°47'0 0.0
2014-Oct-22 23:32N 44°44' E 037°47'0 0.0
2014-Oct-22 22:18N 44°44' E 037°47'0 0.0
2014-Oct-22 21:33N 44°44' E 037°47'0 0.0
2014-Oct-22 20:31N 44°44' E 037°47'0 0.0
2014-Oct-22 19:32N 44°44' E 037°47'0 0.0
2014-Oct-22 18:32N 44°44' E 037°47'0 0.0
2014-Oct-22 17:33N 44°44' E 037°47'0 0.0
2014-Oct-22 16:25N 44°44' E 037°47'0 0.0
2014-Oct-22 15:31N 44°44' E 037°47'0 0.0
2014-Oct-22 14:32N 44°44' E 037°47'0 0.0
2014-Oct-22 13:30N 44°44' E 037°47'0 0.0
2014-Oct-22 12:33N 44°44' E 037°47'0 0.0
2014-Oct-22 11:31N 44°44' E 037°47'0 0.0
2014-Oct-22 10:32N 44°44' E 037°47'0 0.0
2014-Oct-22 09:29N 44°44' E 037°47'0 0.0
2014-Oct-22 08:33N 44°44' E 037°47'1 0.7
2014-Oct-22 07:34N 44°43' E 037°48'6 5.7
2014-Oct-22 06:33N 44°38' E 037°51'7 6.4
2014-Oct-22 05:32N 44°35' E 037°43'1 0.7
2014-Oct-22 04:33N 44°34' E 037°43'1 0.8
2014-Oct-22 03:34N 44°33' E 037°43'1 0.8
2014-Oct-22 02:34N 44°33' E 037°43'1 0.8
2014-Oct-22 01:34N 44°32' E 037°44'1 1.0
2014-Oct-22 00:34N 44°31' E 037°44'1 1.2
2014-Oct-21 23:33N 44°30' E 037°45'1 1.2
2014-Oct-21 22:33N 44°29' E 037°45'2 1.6
2014-Oct-21 21:31N 44°28' E 037°47'2 1.6
2014-Oct-21 20:31N 44°26' E 037°48'1 0.7
2014-Oct-21 19:34N 44°25' E 037°48'10 9.7
2014-Oct-21 18:34N 44°27' E 037°34'11013.0
2014-Oct-21 10:06N 43°36' E 035°19'1213.5
2014-Oct-21 09:15N 43°31' E 035°05'2413.6
2014-Oct-21 07:29N 43°19' E 034°36'1313.6
2014-Oct-21 06:31N 43°14' E 034°20'23213.4
2014-Oct-20 13:11N 41°27' E 029°41'913.5
2014-Oct-20 12:34N 41°23' E 029°31'1413.7
2014-Oct-20 11:33N 41°17' E 029°15'2110.5
2014-Oct-20 09:33N 40°59' E 028°60'1110.6
2014-Oct-20 08:32N 40°48' E 028°55'2 1.6
2014-Oct-20 07:31N 40°47' E 028°55'0 0.3
2014-Oct-20 06:32N 40°47' E 028°56'0 0.3
2014-Oct-20 05:33N 40°47' E 028°56'0 0.4
2014-Oct-20 04:33N 40°47' E 028°56'0 0.4
2014-Oct-20 03:33N 40°48' E 028°57'3 2.8
2014-Oct-20 02:33N 40°48' E 028°53'2 1.9
2014-Oct-20 01:33N 40°50' E 028°53'1 0.7
2014-Oct-20 00:31N 40°49' E 028°53'1 0.7
2014-Oct-19 23:33N 40°49' E 028°54'1 0.7
2014-Oct-19 22:33N 40°48' E 028°54'1 0.7
2014-Oct-19 21:32N 40°47' E 028°55'1 0.5
2014-Oct-19 20:33N 40°47' E 028°55'0 0.4
2014-Oct-19 19:31N 40°47' E 028°56'5 5.5
2014-Oct-19 18:32N 40°46' E 028°49'10 9.5
2014-Oct-19 17:30N 40°44' E 028°36'1 1.1
2014-Oct-19 16:24N 40°45' E 028°37'1 0.8
2014-Oct-19 15:27N 40°45' E 028°38'1 1.2
2014-Oct-19 14:24N 40°45' E 028°40'1 1.3
2014-Oct-19 13:27N 40°46' E 028°41'1 1.4
2014-Oct-19 12:29N 40°46' E 028°43'1 1.6
2014-Oct-19 11:32N 40°45' E 028°45'1 1.0
2014-Oct-19 10:31N 40°45' E 028°46'1010.1
2014-Oct-19 09:30N 40°54' E 028°41'3 0.2
2014-Oct-18 21:22N 40°57' E 028°41'2 1.8
2014-Oct-18 20:27N 40°56' E 028°40'0 0.0
2014-Oct-18 14:33N 40°55' E 028°40'10 9.5
2014-Oct-18 13:30N 40°49' E 028°30'9113.1
2014-Oct-18 06:31N 40°19' E 026°36'1413.7
2014-Oct-18 05:30N 40°09' E 026°24'2010.0
2014-Oct-18 03:31N 39°58' E 026°01'1212.6
2014-Oct-18 02:33N 39°49' E 025°52'1514.3
2014-Oct-18 01:32N 39°34' E 025°49'11514.3
2014-Oct-17 17:33N 37°40' E 025°52'1413.7
2014-Oct-17 16:33N 37°26' E 025°54'1413.6
2014-Oct-17 15:33N 37°14' E 026°02'1413.6
2014-Oct-17 14:33N 37°02' E 026°10'1413.5
2014-Oct-17 13:33N 36°51' E 026°20'1413.9
2014-Oct-17 12:33N 36°41' E 026°32'1414.2
2014-Oct-17 11:33N 36°30' E 026°43'1413.7
2014-Oct-17 10:33N 36°20' E 026°55'1413.6
2014-Oct-17 09:33N 36°10' E 027°07'1413.6
2014-Oct-17 08:33N 36°00' E 027°18'1413.6
2014-Oct-17 07:33N 35°50' E 027°29'1313.4
2014-Oct-17 06:33N 35°39' E 027°39'1413.7
2014-Oct-17 05:33N 35°26' E 027°45'1613.8
2014-Oct-17 04:23N 35°12' E 027°52'1213.8
2014-Oct-17 03:32N 35°01' E 027°58'1413.9
2014-Oct-17 02:33N 34°48' E 028°04'3213.8
2014-Oct-17 00:16N 34°19' E 028°18'1013.8
2014-Oct-16 23:30N 34°09' E 028°23'1313.4
2014-Oct-16 22:33N 33°57' E 028°29'1513.6
2014-Oct-16 21:27N 33°44' E 028°36'1213.7
2014-Oct-16 20:33N 33°32' E 028°41'1413.7
2014-Oct-16 19:33N 33°19' E 028°47'  
Track history (hours):
 
Tides and Currents Weather Stations Pressure Air Temp Water Temp Dewpoint Dewpoint Depression Visibility Wind Speed Wind Dir Waves Ship Positions

MSC Lea

Last reported at 2014-Oct-23 16:16 UTC. Time now 2014-Oct-23 17:12 UTC.
Position N 44°30' E 037°34'.

Length 217 m; draft 8.2 m.

Type: Ship (hazmat cat A). MMSI: 215101000.

Date/timePositionNaut miles runAvg speedWind from/ knotsBaromVisibWave heightAir tempDewpointWater temp
2014-Oct-23 16:16N 44°30' E 037°34'1014.4
2014-Oct-23 15:34N 44°36' E 037°46'8 8.1
2014-Oct-23 14:34N 44°44' E 037°47'0 0.4
2014-Oct-23 13:32N 44°44' E 037°47'0 0.0
2014-Oct-23 12:32N 44°44' E 037°47'0 0.0
2014-Oct-23 11:33N 44°44' E 037°47'0 0.0
2014-Oct-23 10:25N 44°44' E 037°47'0 0.0
2014-Oct-23 09:31N 44°44' E 037°47'0 0.0
2014-Oct-23 08:32N 44°44' E 037°47'0 0.0
2014-Oct-23 07:33N 44°44' E 037°47'0 0.0
2014-Oct-23 06:33N 44°44' E 037°47'0 0.0
2014-Oct-23 05:31N 44°44' E 037°47'0 0.0
2014-Oct-23 04:32N 44°44' E 037°47'0 0.0
2014-Oct-23 03:32N 44°44' E 037°47'0 0.0
2014-Oct-23 02:33N 44°44' E 037°47'0 0.0
2014-Oct-23 01:22N 44°44' E 037°47'0 0.0
2014-Oct-23 00:32N 44°44' E 037°47'0 0.0
2014-Oct-22 23:32N 44°44' E 037°47'0 0.0
2014-Oct-22 22:18N 44°44' E 037°47'0 0.0
2014-Oct-22 21:33N 44°44' E 037°47'0 0.0
2014-Oct-22 20:31N 44°44' E 037°47'0 0.0
2014-Oct-22 19:32N 44°44' E 037°47'0 0.0
2014-Oct-22 18:32N 44°44' E 037°47'0 0.0
2014-Oct-22 17:33N 44°44' E 037°47'0 0.0
2014-Oct-22 16:25N 44°44' E 037°47'0 0.0
2014-Oct-22 15:31N 44°44' E 037°47'0 0.0
2014-Oct-22 14:32N 44°44' E 037°47'0 0.0
2014-Oct-22 13:30N 44°44' E 037°47'0 0.0
2014-Oct-22 12:33N 44°44' E 037°47'0 0.0
2014-Oct-22 11:31N 44°44' E 037°47'0 0.0
2014-Oct-22 10:32N 44°44' E 037°47'0 0.0
2014-Oct-22 09:29N 44°44' E 037°47'0 0.0
2014-Oct-22 08:33N 44°44' E 037°47'1 0.7
2014-Oct-22 07:34N 44°43' E 037°48'6 5.7
2014-Oct-22 06:33N 44°38' E 037°51'7 6.4
2014-Oct-22 05:32N 44°35' E 037°43'1 0.7
2014-Oct-22 04:33N 44°34' E 037°43'1 0.8
2014-Oct-22 03:34N 44°33' E 037°43'1 0.8
2014-Oct-22 02:34N 44°33' E 037°43'1 0.8
2014-Oct-22 01:34N 44°32' E 037°44'1 1.0
2014-Oct-22 00:34N 44°31' E 037°44'1 1.2
2014-Oct-21 23:33N 44°30' E 037°45'1 1.2
2014-Oct-21 22:33N 44°29' E 037°45'2 1.6
2014-Oct-21 21:31N 44°28' E 037°47'2 1.6
2014-Oct-21 20:31N 44°26' E 037°48'1 0.7
2014-Oct-21 19:34N 44°25' E 037°48'10 9.7
2014-Oct-21 18:34N 44°27' E 037°34'11013.0
2014-Oct-21 10:06N 43°36' E 035°19'1213.5
2014-Oct-21 09:15N 43°31' E 035°05'2413.6
2014-Oct-21 07:29N 43°19' E 034°36'1313.6
2014-Oct-21 06:31N 43°14' E 034°20'23213.4
2014-Oct-20 13:11N 41°27' E 029°41'913.5
2014-Oct-20 12:34N 41°23' E 029°31'1413.7
2014-Oct-20 11:33N 41°17' E 029°15'2110.5
2014-Oct-20 09:33N 40°59' E 028°60'1110.6
2014-Oct-20 08:32N 40°48' E 028°55'2 1.6
2014-Oct-20 07:31N 40°47' E 028°55'0 0.3
2014-Oct-20 06:32N 40°47' E 028°56'0 0.3
2014-Oct-20 05:33N 40°47' E 028°56'0 0.4
2014-Oct-20 04:33N 40°47' E 028°56'0 0.4
2014-Oct-20 03:33N 40°48' E 028°57'3 2.8
2014-Oct-20 02:33N 40°48' E 028°53'2 1.9
2014-Oct-20 01:33N 40°50' E 028°53'1 0.7
2014-Oct-20 00:31N 40°49' E 028°53'1 0.7
2014-Oct-19 23:33N 40°49' E 028°54'1 0.7
2014-Oct-19 22:33N 40°48' E 028°54'1 0.7
2014-Oct-19 21:32N 40°47' E 028°55'1 0.5
2014-Oct-19 20:33N 40°47' E 028°55'0 0.4
2014-Oct-19 19:31N 40°47' E 028°56'5 5.5
2014-Oct-19 18:32N 40°46' E 028°49'10 9.5
2014-Oct-19 17:30N 40°44' E 028°36'1 1.1
2014-Oct-19 16:24N 40°45' E 028°37'1 0.8
2014-Oct-19 15:27N 40°45' E 028°38'1 1.2
2014-Oct-19 14:24N 40°45' E 028°40'1 1.3
2014-Oct-19 13:27N 40°46' E 028°41'1 1.4
2014-Oct-19 12:29N 40°46' E 028°43'1 1.6
2014-Oct-19 11:32N 40°45' E 028°45'1 1.0
2014-Oct-19 10:31N 40°45' E 028°46'1010.1
2014-Oct-19 09:30N 40°54' E 028°41'3 0.2
2014-Oct-18 21:22N 40°57' E 028°41'2 1.8
2014-Oct-18 20:27N 40°56' E 028°40'0 0.0
2014-Oct-18 14:33N 40°55' E 028°40'10 9.5
2014-Oct-18 13:30N 40°49' E 028°30'9113.1
2014-Oct-18 06:31N 40°19' E 026°36'1413.7
2014-Oct-18 05:30N 40°09' E 026°24'2010.0
2014-Oct-18 03:31N 39°58' E 026°01'1212.6
2014-Oct-18 02:33N 39°49' E 025°52'1514.3
2014-Oct-18 01:32N 39°34' E 025°49'11514.3
2014-Oct-17 17:33N 37°40' E 025°52'1413.7
2014-Oct-17 16:33N 37°26' E 025°54'1413.6
2014-Oct-17 15:33N 37°14' E 026°02'1413.6
2014-Oct-17 14:33N 37°02' E 026°10'1413.5
2014-Oct-17 13:33N 36°51' E 026°20'1413.9
2014-Oct-17 12:33N 36°41' E 026°32'1414.2
2014-Oct-17 11:33N 36°30' E 026°43'1413.7
2014-Oct-17 10:33N 36°20' E 026°55'1413.6
2014-Oct-17 09:33N 36°10' E 027°07'1413.6
2014-Oct-17 08:33N 36°00' E 027°18'1413.6
2014-Oct-17 07:33N 35°50' E 027°29'1313.4
2014-Oct-17 06:33N 35°39' E 027°39'1413.7
2014-Oct-17 05:33N 35°26' E 027°45'1613.8
2014-Oct-17 04:23N 35°12' E 027°52'1213.8
2014-Oct-17 03:32N 35°01' E 027°58'1413.9
2014-Oct-17 02:33N 34°48' E 028°04'3213.8
2014-Oct-17 00:16N 34°19' E 028°18'1013.8
2014-Oct-16 23:30N 34°09' E 028°23'1313.4
2014-Oct-16 22:33N 33°57' E 028°29'1513.6
2014-Oct-16 21:27N 33°44' E 028°36'1213.7
2014-Oct-16 20:33N 33°32' E 028°41'1413.7
2014-Oct-16 19:33N 33°19' E 028°47'  

Dump ship's entire track history